Home > Weather > Nikšić > Past weeks

Flag for Montenegro Past Weather in Nikšić, Montenegro — Yesterday and Last 2 Weeks

Now
79 °F

Thunderstorms. Partly sunny.


Feels Like: 81 °F
Forecast: 55 / 82 °F
Wind: 3 mph from Northeast

Location: Niksic

Current Time: Jul 26, 2016 at 9:51:37 PM

Latest Report: Jul 26, 2016 at 5:00 PM


Visibility: 13 mi

Pressure: 29.86 "Hg (27.77 "Hg at 635m altitude)

Humidity: 64%

Dew Point: 66 °F

Location of NikšićLocation

Past Weather in Nikšić — Graph

°F

Nikšić Temperature Yesterday

Maximum temperature yesterday: 86 °F (at 4:00 PM)
Minimum temperature yesterday: 71 °F (at 6:00 AM)
Average temperature yesterday: 77 °F

High & Low Weather Summary for the Past Weeks

 TemperatureHumidityPressure
High89 °F (Jul 12, 3:00 PM)100% (Jul 15, 4:00 PM)30.23 "Hg (Jul 15, 4:00 PM)
Low52 °F (Jul 17, 6:00 AM)39% (Jul 20, 3:00 PM)29.75 "Hg (Jul 15, 12:00 PM)
Average72 °F65%29.94 "Hg
* Reported Jul 11 5:00 PM — Jul 26 5:00 PM, Nikšić, Weather by CustomWeather, © 2016

Note: Actual official high and low records may vary slightly from our data, if they occured in-between our weather recording intervals... More about our weather records

Advertising

Nikšić Weather History for the Previous 24 Hours

Scroll right to see more
 ConditionsComfort  
Time TempWeatherWind HumidityBarometerVisibility
5:00 PM
Tue, Jul 26
79 °FThunderstorms. Partly sunny.3 mph64%29.86 "Hg12 mi
4:00 PM79 °FOvercast.1 mph64%29.86 "Hg12 mi
3:00 PM81 °FOvercast.1 mph69%29.86 "Hg12 mi
2:00 PM74 °FThunderstorms. Overcast.3 mph71%29.91 "Hg12 mi
1:00 PM78 °FThunderstorms. Partly sunny.3 mph62%29.89 "Hg12 mi
12:00 PM80 °FScattered clouds.3 mph59%29.88 "Hg12 mi
11:00 AM76 °FScattered clouds.5 mph64%29.90 "Hg12 mi
10:00 AM73 °FPartly sunny.3 mph68%29.92 "Hg12 mi
9:00 AM70 °FPartly sunny.3 mph72%29.92 "Hg12 mi
8:00 AM68 °FPartly sunny.5 mph74%29.93 "Hg12 mi
7:00 AM66 °FPartly sunny.2 mph80%29.94 "Hg12 mi
6:00 AM65 °FPartly sunny.2 mph83%29.94 "Hg12 mi
5:00 AM67 °FOvercast.2 mph83%29.94 "Hg12 mi
11:00 PM
Mon, Jul 25
72 °FPassing clouds.2 mph69%29.92 "Hg12 mi
10:00 PM73 °FPassing clouds.2 mph65%29.91 "Hg12 mi
9:00 PM74 °FPassing clouds.3 mph67%29.90 "Hg12 mi
Weather by CustomWeather, © 2016

See weather overviewHow to use our weather pages